Date String (YYYY-MM-DD hh:mm:ss) UTC,Instrument flags,Ambient pressure (hPa),Sample flow (lpm),Bypass flow (lpm),Sample temperature (°C),Ambient temperature (°C),ASC tube jacket temperature (°C),LED temperature (°C),Box temperature (°C),Sample RH (%),Span deviation,Mass concentration (μg/m³),Mass concentration (μg/m³),Mass concentration (μg/m³)
DateTimeUTC,F1_M11,P_M11,Q1_M11,Q2_M11,T1_M11,T2_M11,T3_M11,T4_M11,T5_M11,U1_M11,ZSPAN_M11,X0_M11,X2_M11,X1_M11
2022-01-30 05:00:00,,0827.2,5.00,0.00,25.0,24.1,00.0,34.0,26.7,06.0,0000.0,0012.87,0008.75,0008.28
2022-01-30 05:01:00,,0827.2,5.00,0.00,24.9,24.1,00.0,34.0,26.6,06.0,0000.0,0012.73,0008.75,0008.29
2022-01-30 05:02:00,,0827.2,5.00,0.00,24.9,24.0,00.0,34.0,26.6,05.9,0000.0,0012.02,0008.74,0008.28
2022-01-30 05:03:00,,0827.3,5.00,0.00,24.8,24.0,00.0,34.0,26.5,05.9,0000.0,0011.97,0008.71,0008.24
2022-01-30 05:04:00,,0827.3,5.00,0.00,24.8,23.9,00.0,33.9,26.4,05.9,0000.0,0011.84,0008.67,0008.22
2022-01-30 05:05:00,,0827.3,5.00,0.00,24.7,23.8,00.0,33.9,26.4,06.1,0000.0,0011.91,0008.66,0008.22
2022-01-30 05:06:00,,0827.3,5.00,0.00,24.7,23.8,00.0,33.9,26.4,06.0,0000.0,0011.93,0008.64,0008.19
2022-01-30 05:07:00,,0827.3,5.00,0.00,24.7,23.9,00.0,33.9,26.4,06.0,0000.0,0011.81,0008.61,0008.16
2022-01-30 05:08:00,,0827.3,5.00,0.00,24.7,23.9,00.0,33.8,26.5,06.0,0000.0,0011.75,0008.60,0008.16
2022-01-30 05:09:00,,0827.3,5.00,0.00,24.7,23.9,00.0,33.8,26.5,05.8,0000.0,0011.68,0008.55,0008.13
2022-01-30 05:10:00,,0827.3,4.98,0.00,24.7,23.9,00.0,33.8,26.5,05.8,0000.0,0011.56,0008.46,0008.05
2022-01-30 05:11:00,,0827.3,5.00,0.00,24.7,24.0,00.0,33.8,26.5,05.8,0000.0,0011.46,0008.39,0007.99
2022-01-30 05:12:00,,0827.3,5.00,0.00,24.7,24.0,00.0,33.8,26.5,05.6,0000.0,0011.43,0008.32,0007.92
2022-01-30 05:13:00,,0827.3,5.00,0.00,24.7,24.0,00.0,33.8,26.5,05.6,0000.0,0011.38,0008.26,0007.86
2022-01-30 05:14:00,,0827.3,5.00,0.00,24.7,24.0,00.0,33.8,26.5,05.6,0000.0,0011.36,0008.20,0007.82
2022-01-30 05:15:00,,0827.4,5.00,0.00,24.7,24.0,00.0,33.8,26.5,05.5,0000.0,0011.32,0008.13,0007.76
2022-01-30 05:16:00,,0827.4,5.01,0.00,24.7,24.0,00.0,33.8,26.5,05.6,0000.0,0011.12,0008.00,0007.67
2022-01-30 05:17:00,,0827.4,5.01,0.00,24.7,24.0,00.0,33.7,26.5,05.5,0000.0,0011.29,0007.88,0007.56
2022-01-30 05:18:00,,0827.4,5.00,0.00,24.7,24.0,00.0,33.7,26.5,05.4,0000.0,0011.41,0007.79,0007.44
2022-01-30 05:19:00,,0827.4,4.98,0.00,24.7,24.0,00.0,33.7,26.5,05.5,0000.0,0011.28,0007.68,0007.34
2022-01-30 05:20:00,,0827.4,5.00,0.00,24.7,24.0,00.0,33.7,26.5,05.5,0000.0,0011.20,0007.63,0007.31
2022-01-30 05:21:00,,0827.4,5.02,0.00,24.7,24.0,00.0,33.7,26.5,05.3,0000.0,0011.19,0007.62,0007.31
2022-01-30 05:22:00,,0827.3,5.00,0.00,24.7,24.0,00.0,33.7,26.5,05.2,0000.0,0011.19,0007.59,0007.28
2022-01-30 05:23:00,,0827.4,4.99,0.00,24.7,24.0,00.0,33.7,26.5,05.1,0000.0,0011.14,0007.55,0007.25
2022-01-30 05:24:00,,0827.4,5.01,0.00,24.7,24.0,00.0,33.7,26.5,05.3,0000.0,0011.16,0007.55,0007.25
2022-01-30 05:25:00,,0827.4,5.00,0.00,24.7,24.0,00.0,33.7,26.5,05.0,0000.0,0011.31,0007.52,0007.22
2022-01-30 05:26:00,,0827.4,5.00,0.00,24.7,24.0,00.0,33.7,26.5,04.9,0000.0,0011.52,0007.46,0007.16
2022-01-30 05:27:00,,0827.4,5.00,0.00,24.7,24.0,00.0,33.7,26.5,04.4,0000.0,0011.40,0007.38,0007.08
2022-01-30 05:28:00,,0827.3,4.99,0.00,24.7,24.0,00.0,33.7,26.5,04.3,0000.0,0011.02,0007.28,0006.97
2022-01-30 05:29:00,,0827.3,5.00,0.00,24.7,24.0,00.0,33.7,26.5,04.5,0000.0,0010.73,0007.20,0006.91
2022-01-30 05:30:00,,0827.4,4.99,0.00,24.7,23.9,00.0,33.7,26.4,04.8,0000.0,0011.35,0007.19,0006.90
2022-01-30 05:31:00,,0827.4,5.01,0.00,24.7,23.9,00.0,33.7,26.5,04.5,0000.0,0011.32,0007.08,0006.80
2022-01-30 05:32:00,,0827.4,5.00,0.00,24.7,23.9,00.0,33.7,26.5,04.5,0000.0,0011.19,0006.98,0006.70
2022-01-30 05:33:00,,0827.4,5.00,0.00,24.6,23.9,00.0,33.7,26.4,04.3,0000.0,0011.05,0006.87,0006.60
2022-01-30 05:34:00,,0827.4,5.00,0.00,24.6,23.9,00.0,33.7,26.4,04.1,0000.0,0010.92,0006.74,0006.47
2022-01-30 05:35:00,,0827.4,5.00,0.00,24.6,23.9,00.0,33.6,26.4,03.8,0000.0,0010.65,0006.55,0006.29
2022-01-30 05:36:00,,0827.4,4.99,0.00,24.6,23.9,00.0,33.6,26.4,03.8,0000.0,0010.16,0006.36,0006.11
2022-01-30 05:37:00,,0827.4,5.00,0.00,24.6,23.9,00.0,33.6,26.4,03.8,0000.0,0009.77,0006.25,0005.98
2022-01-30 05:38:00,,0827.4,5.00,0.00,24.6,23.9,00.0,33.6,26.4,03.9,0000.0,0009.74,0006.18,0005.90
2022-01-30 05:39:00,,0827.4,4.99,0.00,24.6,23.9,00.0,33.6,26.3,04.0,0000.0,0009.66,0006.14,0005.89
2022-01-30 05:40:00,,0827.4,5.00,0.00,24.6,23.9,00.0,33.6,26.3,03.9,0000.0,0009.52,0006.08,0005.84
2022-01-30 05:41:00,,0827.4,5.00,0.00,24.6,23.8,00.0,33.6,26.3,03.9,0000.0,0008.83,0005.93,0005.70
2022-01-30 05:42:00,,0827.4,5.01,0.00,24.6,23.8,00.0,33.6,26.3,03.8,0000.0,0008.67,0005.86,0005.60
2022-01-30 05:43:00,,0827.3,5.00,0.00,24.6,23.8,00.0,33.6,26.3,03.8,0000.0,0008.57,0005.76,0005.50
2022-01-30 05:44:00,,0827.3,5.01,0.00,24.5,23.8,00.0,33.6,26.3,03.7,0000.0,0008.44,0005.64,0005.40
2022-01-30 05:45:00,,0827.3,5.00,0.00,24.5,23.8,00.0,33.6,26.3,03.7,0000.0,0008.45,0005.55,0005.33
2022-01-30 05:46:00,,0827.3,5.00,0.00,24.5,23.8,00.0,33.6,26.3,04.0,0000.0,0008.52,0005.53,0005.31
2022-01-30 05:47:00,,0827.3,5.00,0.00,24.5,23.7,00.0,33.6,26.3,04.1,0000.0,0008.56,0005.55,0005.32
2022-01-30 05:48:00,,0827.3,5.00,0.00,24.5,23.7,00.0,33.5,26.2,04.0,0000.0,0008.57,0005.52,0005.31
2022-01-30 05:49:00,,0827.3,5.00,0.00,24.5,23.7,00.0,33.5,26.2,03.9,0000.0,0008.73,0005.49,0005.28
2022-01-30 05:50:00,,0827.3,5.00,0.00,24.5,23.7,00.0,33.5,26.2,03.8,0000.0,0008.65,0005.44,0005.22
2022-01-30 05:51:00,,0827.4,4.99,0.00,24.4,23.7,00.0,33.5,26.2,03.8,0000.0,0008.59,0005.39,0005.16
2022-01-30 05:52:00,,0827.4,5.00,0.00,24.4,23.6,00.0,33.5,26.2,03.9,0000.0,0008.52,0005.36,0005.13
2022-01-30 05:53:00,,0827.4,5.00,0.00,24.4,23.6,00.0,33.5,26.2,04.0,0000.0,0008.40,0005.30,0005.08
2022-01-30 05:54:00,,0827.4,5.00,0.00,24.4,23.6,00.0,33.5,26.1,04.0,0000.0,0008.34,0005.24,0005.02
2022-01-30 05:55:00,,0827.3,5.00,0.00,24.4,23.6,00.0,33.5,26.1,04.0,0000.0,0008.31,0005.21,0004.97
2022-01-30 05:56:00,,0827.4,5.00,0.00,24.4,23.6,00.0,33.4,26.1,03.9,0000.0,0008.18,0005.19,0004.95
2022-01-30 05:57:00,,0827.3,5.00,0.00,24.3,23.6,00.0,33.4,26.1,03.9,0000.0,0008.06,0005.14,0004.90
2022-01-30 05:58:00,,0827.3,5.01,0.00,24.3,23.5,00.0,33.4,26.1,03.8,0000.0,0007.98,0005.09,0004.86
2022-01-30 05:59:00,,0827.4,5.00,0.00,24.3,23.5,00.0,33.4,26.0,03.9,0000.0,0007.95,0005.08,0004.83
